Regional Weather Roundup
Issued by NWS

Home | Current Version | Previous Version | Text Only | Print | Product List | Glossary Off
Versions: 1 2 3 4 5 6 7 8 9 10 11 12 13 14 15 16 17 18 19 20 21 22 23 24 25 26 27 28 29 30 31 32 33 34 35 36 37 38 39 40 41 42 43 44 45 46 47 48 49 50

000
ASUS45 KBOU 290910
RWRCO

WEATHER ROUNDUP FOR COLORADO
NATIONAL WEATHER SERVICE PUEBLO CO
300 AM MDT WED JUL 29 2015

NOTE: "FAIR" INDICATES FEW OR NO CLOUDS BELOW 12000 FEET WITH NO
SIGNIFICANT WEATHER AND/OR OBSTRUCTIONS TO VISIBILITY.

COZ001>005-013-030-031-291000-
...NORTHWEST COLORADO...

CITY           SKY/WX    TMP DP  RH WIND       PRES   REMARKS
CRAIG          CLEAR     43  36  76 SE6       30.33R
HAYDEN         CLEAR     48  32  53 E7        30.34R
MEEKER         CLEAR     48  35  60 E6        30.34R
MOUNT WERNER   NOT AVBL
STEAMBOAT SPGS FAIR      45  35  66 CALM      30.36R
WALDEN         FAIR      36  30  80 SE9       30.43R
$$

COZ006>008-011-291000-
...WEST CENTRAL VALLEYS...

CITY           SKY/WX    TMP DP  RH WIND       PRES   REMARKS
GRAND JUNCTION CLEAR     60  29  30 E5        30.17R
MONTROSE       CLEAR     60  37  42 SE7       30.26R
EAGLE          CLEAR     52  36  54 CALM      30.36R
RIFLE          CLEAR     56  34  43 E3        30.26R
DELTA          NOT AVBL
NUCLA          FAIR      55  34  44 E9        30.28S
$$

COZ017>023-064>068-291000-
...SOUTHWEST COLORADO...

CITY           SKY/WX    TMP DP  RH WIND       PRES   REMARKS
DURANGO        MOCLDY    61  37  41 N10       30.28R
CORTEZ         CLEAR     52  38  58 SE7       30.21F
PAGOSA SPRINGS FAIR      58  39  49 CALM      30.38R
TELLURIDE      PTCLDY    52  34  49 SE7       30.49S
WOLF CREEK PAS NOT AVBL
$$

COZ009-010-012-014-032>034-037-058>063-291000-
...CENTRAL COLORADO...

CITY           SKY/WX    TMP DP  RH WIND       PRES   REMARKS
ASPEN          PTCLDY    47  36  65 SW8       30.39S
BUENA VISTA    FAIR      49  37  63 CALM      30.44S
COPPER MTN     CLEAR     52  36  54 S22       30.68S
BERTHOUD PASS  FAIR      41  32  70 MISG      30.71F
COTTONWOOD PAS PTCLDY    55  34  44 CALM      30.56S
GUNNISON       PTCLDY    48  34  57 CALM      30.42R
KREMMLING      CLEAR     45  34  65 CALM      30.41S
LEADVILLE      PTCLDY    45  34  65 NE5       30.54S
MONARCH PASS   PTCLDY    43  34  70 E6        30.78S
SALIDA         FAIR      58  40  51 CALM      30.49R
NIWOT RIDGE    NOT AVBL
SUNLIGHT       PTCLDY    50  28  43 NE3       30.62R
WILKERSON PASS CLEAR     45  36  70 SW7       30.67S
$$

COZ069>075-291000-
...SAN LUIS VALLEY/SANGRE DE CRISTO MOUNTAINS...

CITY           SKY/WX    TMP DP  RH WIND       PRES   REMARKS
ALAMOSA        MOCLDY    57  47  69 SE9       30.34S
LA VETA PASS   CLOUDY    46  41  81 MISG      30.56S
SAGUACHE       PTCLDY    54  45  71 N9        30.40S
$$

COZ035-036-038>040-291000-
...NORTHERN COLORADO FRONT RANGE...

CITY           SKY/WX    TMP DP  RH WIND       PRES   REMARKS
DENVER INTL AP CLEAR     56  44  64 S12       30.29S
DMNS CITY PARK NOT AVBL
AURORA         PTCLDY    58  44  58 S12       30.32R
FRONT RANGE AP NOT AVBL
ERIE MUNI ARPT FAIR      56  44  62 CALM      30.28R
BOULDER MUN AP FAIR      63  41  45 CALM      30.29R
CENTENNIAL     PTCLDY    57  45  64 SE10      30.32R
BROOMFIELD     CLEAR     64  37  36 NW6       30.31R
LOVELAND       CLEAR     61  43  51 CALM      30.29R
LONGMONT       FAIR      61  43  51 CALM      30.30R
$$

COZ041-046-047-076>085-087-088-291000-
...PIKES PEAK/PALMER DIVIDE AND SOUTHERN FOOTHILLS...

CITY           SKY/WX    TMP DP  RH WIND       PRES   REMARKS
COLO. SPRINGS  MOCLDY    61  42  49 CALM      30.38R
A. F. ACADEMY  MOCLDY    57  43  59 N5        30.38R
ELLICOTT       FAIR     N/A N/A N/A E8        30.34S
FALCON         FAIR      58  42  55 CALM      30.41S
FORT CARSON    PTCLDY    63  42  46 CALM      30.34R
LIMON          MOCLDY    59  47  64 CALM      30.32R
MONUMENT HILL  PTCLDY    50  41  71 S7        30.40S
TRINIDAD       MOCLDY    62  49  62 NW7       30.27S
$$

COZ042>045-048>051-090-091-291000-
...NORTHEAST COLORADO...

CITY           SKY/WX    TMP DP  RH WIND       PRES   REMARKS
GREELEY ARPT   CLEAR     55  45  67 CALM      30.27R
AKRON          MOCLDY    63  46  54 SE8       30.27R
BURLINGTON     CLOUDY    63  52  67 SE5       30.26R
WRAY           FAIR      54  51  89 W3        30.24R
STERLING       NOT AVBL
HOLYOKE        FAIR      59  52  77 CALM      30.24S
FORT MORGAN    FAIR      58  42  56 CALM      30.26S
$$

COZ086-089-092>099-291000-
...SOUTHEAST COLORADO...

CITY           SKY/WX    TMP DP  RH WIND       PRES   REMARKS
PUEBLO         MOCLDY    72  46  39 E13       30.24S
LA JUNTA       MOCLDY    68  51  54 E13       30.22F
LAMAR          CLOUDY    65  57  75 E5        30.22S
SPRINGFIELD      N/A     65  63  93 SE10      30.25S
$$



USA.gov is the U.S. government's official web portal to all federal, state and local government web resources and services.